1501441200.3,45320,25.56,74618.3,7.63,-18.93,-19.23,0,*75
1501441201.49,45321,25.56,74616.3,7.63,-18.73,-19.13,0,*79
1501441202.68,45322,25.56,74618.3,7.63,-18.73,-19.03,0,*7B
1501441203.88,45323,25.56,74622.5,7.63,-18.79,-19.03,0,*70
1501441205.1,45324,25.56,74620.0,7.65,-18.73,-19.03,0,*7B
1501441206.31,45325,25.56,74620.0,7.63,-18.49,-18.89,0,*76
1501441207.53,45326,25.56,74616.3,7.63,-18.65,-18.93,0,*70
1501441208.73,45327,25.56,74616.8,7.63,-18.73,-19.13,0,*7F
1501441209.97,45328,25.56,74618.0,7.63,-18.89,-19.23,0,*76
1501441211.16,45329,25.56,74620.8,7.63,-18.73,-19.03,0,*70
1501441212.38,45330,25.56,74620.3,7.63,-18.65,-18.89,0,*7C
1501441213.6,45331,25.56,74618.3,7.63,-18.59,-18.79,0,*7D
1501441214.8,45332,25.56,74616.3,7.63,-18.73,-19.13,0,*7B
1501441215.99,45333,25.63,74622.8,7.63,-18.73,-19.03,0,*7B
1501441217.21,45334,25.56,74618.8,7.61,-18.79,-19.07,0,*70
1501441218.43,45335,25.56,74618.8,7.61,-18.79,-19.07,0,*71
1501441219.68,45336,25.56,74618.8,7.61,-18.65,-18.93,0,*73
1501441220.92,45337,25.56,74620.8,7.61,-18.55,-18.79,0,*75
1501441222.17,45338,25.56,74616.3,7.61,-18.55,-18.83,0,*7F
1501441223.41,45339,25.56,74618.8,7.63,-18.59,-18.93,0,*71
1501441224.63,45340,25.56,74614.8,7.63,-18.65,-18.89,0,*7B
1501441225.85,45341,25.56,74618.3,7.63,-18.73,-18.93,0,*76
1501441227.05,45342,25.56,74618.5,7.63,-18.79,-19.13,0,*76
1501441228.33,45343,25.56,74618.8,7.61,-18.93,-19.27,0,*76
1501441229.58,45344,25.56,74616.3,7.61,-18.83,-19.27,0,*70
1501441230.8,45345,25.56,74618.3,7.61,-18.69,-19.07,0,*77
1501441232.03,45346,25.56,74616.0,7.59,-18.65,-18.93,0,*7F
1501441233.22,45347,25.56,74616.3,7.59,-18.41,-18.79,0,*7C
1501441234.47,45348,25.56,74618.0,7.61,-18.21,-18.55,0,*70
1501441235.7,45349,25.56,74616.3,7.61,-18.49,-18.69,0,*70
1501441236.92,45350,25.56,74618.3,7.61,-18.49,-18.83,0,*7C
1501441238.14,45351,25.56,74620.3,7.61,-18.65,-18.83,0,*73
1501441239.38,45352,25.56,74618.8,7.61,-18.55,-18.79,0,*76
1501441240.64,45353,25.56,74618.3,7.61,-18.79,-18.93,0,*7D
1501441241.86,45354,25.56,74620.5,7.61,-18.79,-18.99,0,*70
1501441243.09,45355,25.56,74618.0,7.61,-18.83,-19.17,0,*73
1501441244.34,45356,25.56,74616.8,7.61,-18.65,-18.93,0,*75
1501441245.57,45357,25.56,74618.5,7.61,-18.41,-18.79,0,*76
1501441246.82,45358,25.56,74614.8,7.61,-18.35,-18.65,0,*77
1501441248.05,45359,25.56,74618.5,7.61,-18.41,-18.69,0,*79
1501441249.27,45360,25.56,74618.0,7.61,-18.41,-18.79,0,*72
1501441250.5,45361,25.56,74616.8,7.61,-18.41,-18.69,0,*72
1501441251.7,45362,25.56,74618.0,7.63,-18.07,-18.45,0,*7F
1501441252.89,45363,25.56,74616.3,7.67,-18.17,-18.45,0,*7B
1501441254.12,45364,25.56,74618.8,7.63,-18.35,-18.73,0,*7D
1501441255.32,45365,25.56,74620.0,7.63,-18.45,-18.73,0,*7B
1501441256.55,45366,25.56,74618.8,7.63,-18.31,-18.65,0,*7C
1501441257.74,45367,25.56,74616.5,7.63,-18.45,-18.73,0,*79
1501441259.0,45368,25.56,74620.5,7.65,-18.07,-18.35,0,*74
1501441260.23,45369,25.56,74618.0,7.63,-18.07,-18.31,0,*77
1501441261.47,45370,25.56,74620.0,7.65,-18.17,-18.35,0,*7C
1501441262.72,45371,25.56,74616.8,7.65,-18.35,-18.65,0,*78
1501441263.98,45372,25.56,74616.8,7.65,-18.35,-18.73,0,*7C
1501441265.22,45373,25.56,74618.3,7.63,-18.59,-18.89,0,*74
1501441266.44,45374,25.56,74618.3,7.63,-18.65,-18.93,0,*77
1501441267.69,45375,25.56,74618.0,7.65,-18.73,-18.93,0,*77
1501441268.9,45376,25.56,74616.8,7.65,-18.65,-19.03,0,*7B
1501441270.12,45377,25.56,74618.0,7.63,-18.65,-18.89,0,*7F
1501441271.31,45378,25.56,74620.0,7.63,-18.49,-18.79,0,*71
1501441272.56,45379,25.56,74614.5,7.63,-18.31,-18.59,0,*7D
1501441273.8,45380,25.56,74618.5,7.63,-18.31,-18.59,0,*7B
1501441275.07,45381,25.56,74618.0,7.65,-18.59,-18.93,0,*74
1501441276.34,45382,25.56,74618.8,7.65,-18.59,-18.93,0,*77
1501441277.57,45383,25.56,74616.8,7.65,-18.65,-19.13,0,*70
1501441278.78,45384,25.56,74618.8,7.65,-18.45,-18.79,0,*78
1501441280.0,45385,25.56,74618.8,7.65,-18.49,-18.79,0,*75
1501441281.23,45386,25.56,74616.5,7.65,-18.73,-19.13,0,*72
1501441282.47,45387,25.56,74618.3,7.63,-18.59,-18.89,0,*7F
1501441283.69,45388,25.56,74616.3,7.65,-18.45,-18.73,0,*7E
1501441284.91,45389,25.56,74618.0,7.63,-18.73,-18.93,0,*72
1501441286.11,45390,25.56,74618.5,7.63,-18.73,-19.13,0,*73
1501441287.3,45391,25.56,74618.3,7.63,-18.65,-19.03,0,*74
1501441288.5,45392,25.56,74622.0,7.63,-18.73,-19.03,0,*70
1501441289.71,45393,25.56,74616.8,7.65,-18.65,-19.03,0,*70
1501441290.94,45394,25.56,74616.0,7.65,-18.73,-19.13,0,*71
1501441292.21,45395,25.56,74616.8,7.65,-18.89,-19.27,0,*72
1501441293.43,45396,25.56,74620.5,7.63,-18.65,-18.93,0,*7B
1501441294.66,45397,25.56,74618.8,7.63,-18.35,-18.73,0,*71
1501441295.87,45398,25.56,74618.5,7.63,-18.21,-18.59,0,*73
1501441297.06,45399,25.56,74616.3,7.67,-18.17,-18.45,0,*7E
1501441298.29,45400,25.56,74618.3,7.65,-18.45,-18.65,0,*7E
1501441299.51,45401,25.56,74618.0,7.65,-18.45,-18.79,0,*72
1501441300.7,45402,25.56,74616.0,7.63,-18.49,-18.79,0,*7B
1501441301.91,45403,25.56,74618.3,7.65,-18.49,-18.79,0,*7C
1501441303.13,45404,25.56,74616.5,7.65,-18.49,-18.79,0,*7B
1501441304.4,45405,25.56,74618.8,7.65,-18.59,-18.93,0,*7F
1501441305.62,45406,25.56,74618.3,7.65,-18.73,-19.03,0,*7C
1501441306.84,45407,25.56,74618.3,7.65,-18.73,-19.13,0,*7C
1501441308.09,45408,25.56,74618.0,7.65,-18.89,-19.13,0,*76
1501441309.31,45409,25.56,74616.8,7.63,-18.73,-18.93,0,*7D
1501441310.58,45410,25.56,74618.0,7.65,-18.59,-18.89,0,*70
1501441311.8,45411,25.56,74616.3,7.63,-18.59,-18.73,0,*72
1501441313.02,45412,25.56,74616.3,7.63,-18.35,-18.65,0,*7C
1501441314.27,45413,25.56,74616.3,7.65,-18.35,-18.65,0,*7B
1501441315.5,45414,25.56,74620.0,7.65,-18.45,-18.73,0,*7C
1501441316.75,45415,25.56,74616.3,7.65,-18.31,-18.65,0,*79
1501441318.01,45416,25.56,74614.8,7.65,-18.31,-18.65,0,*7A
1501441319.23,45417,25.56,74612.0,7.65,-18.21,-18.45,0,*78
1501441320.45,45418,25.56,74612.8,7.65,-18.17,-18.65,0,*70
1501441321.72,45419,25.56,74618.3,7.65,-18.31,-18.59,0,*7A
1501441322.99,45420,25.56,74616.5,7.65,-18.31,-18.59,0,*70
1501441324.21,45421,25.56,74616.0,7.67,-18.41,-18.55,0,*78
1501441325.4,45422,25.56,74618.5,7.67,-18.17,-18.25,0,*7F
1501441326.65,45423,25.56,74614.3,7.67,-18.01,-18.31,0,*7C
1501441327.87,45424,25.56,74614.0,7.67,-18.01,-18.45,0,*78
1501441329.07,45425,25.56,74614.5,7.67,-18.11,-18.45,0,*78
1501441330.29,45426,25.56,74618.0,7.67,-17.97,-18.17,0,*7D
1501441331.51,45427,25.56,74618.8,7.67,-18.11,-18.31,0,*79
1501441332.73,45428,25.56,74614.5,7.71,-18.17,-18.55,0,*75
1501441333.95,45429,25.56,74616.5,7.71,-18.21,-18.55,0,*71
1501441335.15,45430,25.56,74616.8,7.67,-18.45,-18.69,0,*73
1501441336.35,45431,25.56,74616.8,7.71,-18.41,-18.65,0,*7D
1501441337.55,45432,25.5,74612.5,7.71,-18.41,-18.69,0,*72
1501441338.74,45433,25.56,74618.3,7.71,-18.25,-18.65,0,*7D
1501441339.94,45434,25.56,74618.0,7.71,-18.41,-18.69,0,*74
1501441341.16,45435,25.56,74618.0,7.67,-18.55,-18.73,0,*7C
1501441342.36,45436,25.56,74616.8,7.71,-18.41,-18.65,0,*7A
1501441343.58,45437,25.56,74614.5,7.71,-18.25,-18.55,0,*7A
1501441344.8,45438,25.56,74618.0,7.71,-18.25,-18.55,0,*75
1501441346.0,45439,25.56,74614.5,7.71,-18.49,-18.69,0,*71
1501441347.22,45440,25.56,74618.8,7.67,-18.69,-18.89,0,*74
1501441348.41,45441,25.56,74614.8,7.71,-18.65,-18.83,0,*74
1501441349.63,45442,25.56,74614.8,7.73,-18.79,-19.13,0,*70
1501441350.83,45443,25.56,74618.0,7.67,-18.69,-19.13,0,*75
1501441352.03,45444,25.56,74616.0,7.71,-18.41,-18.79,0,*72
1501441353.23,45445,25.56,74618.8,7.71,-18.41,-18.69,0,*72
1501441354.45,45446,25.56,74618.5,7.71,-18.79,-18.93,0,*7F
1501441355.64,45447,25.56,74618.0,7.67,-18.73,-19.07,0,*7F
1501441356.83,45448,25.56,74618.3,7.67,-18.83,-19.17,0,*7E
1501441358.02,45449,25.56,74616.0,7.67,-18.73,-19.07,0,*71
1501441359.21,45450,25.5,74612.0,7.67,-18.65,-18.83,0,*73
1501441360.4,45451,25.56,74618.0,7.67,-18.65,-19.03,0,*7B
1501441361.6,45452,25.5,74614.5,7.67,-18.83,-19.17,0,*75
1501441362.8,45453,25.56,74618.5,7.67,-18.69,-18.99,0,*77
1501441363.99,45454,25.56,74616.5,7.71,-18.41,-18.79,0,*73
1501441365.21,45455,25.56,74618.8,7.67,-18.55,-18.69,0,*71
1501441366.41,45456,25.56,74616.5,7.71,-18.41,-18.65,0,*7C
1501441367.61,45457,25.56,74618.8,7.67,-18.45,-18.69,0,*72
1501441368.83,45458,25.56,74616.8,7.71,-18.35,-18.65,0,*71
1501441370.03,45459,25.56,74616.3,7.67,-18.45,-18.73,0,*77
1501441371.24,45460,25.56,74618.8,7.71,-18.25,-18.55,0,*78
1501441372.44,45461,25.56,74616.0,7.71,-18.11,-18.49,0,*73
1501441373.63,45462,25.56,74616.0,7.71,-18.11,-18.49,0,*70
1501441374.85,45463,25.56,74618.0,7.71,-18.21,-18.55,0,*7F
1501441376.05,45464,25.56,74618.0,7.67,-18.45,-18.65,0,*7E
1501441377.27,45465,25.56,74616.3,7.71,-18.35,-18.65,0,*7F
1501441378.5,45466,25.56,74614.5,7.71,-18.35,-18.65,0,*7C
1501441379.69,45467,25.5,74612.8,7.71,-18.41,-18.65,0,*7E
1501441380.89,45468,25.56,74616.0,7.71,-18.49,-18.65,0,*79
1501441382.09,45469,25.56,74618.0,7.71,-18.25,-18.65,0,*72
1501441383.28,45470,25.56,74616.8,7.71,-18.49,-18.83,0,*78
1501441384.49,45471,25.56,74618.0,7.73,-18.41,-18.79,0,*76
1501441385.71,45472,25.56,74614.3,7.73,-18.25,-18.65,0,*7A
1501441386.94,45473,25.5,74614.5,7.73,-18.41,-18.69,0,*75
1501441388.13,45474,25.56,74616.5,7.75,-18.49,-18.79,0,*7D
1501441389.34,45475,25.56,74612.5,7.73,-18.49,-18.79,0,*7A
1501441390.56,45476,25.56,74616.3,7.73,-18.25,-18.65,0,*7E
1501441391.8,45477,25.5,74612.8,7.71,-18.35,-18.55,0,*7F
1501441393.02,45478,25.56,74616.3,7.71,-18.25,-18.55,0,*71
1501441394.25,45479,25.5,74614.8,7.71,-18.35,-18.65,0,*72
1501441395.44,45480,25.56,74612.8,7.71,-18.41,-18.65,0,*77
1501441396.67,45481,25.56,74614.5,7.75,-18.31,-18.65,0,*75
1501441397.89,45482,25.56,74614.3,7.73,-18.41,-18.65,0,*77
1501441399.13,45483,25.56,74616.5,7.73,-18.55,-18.79,0,*7E
1501441400.35,45484,25.56,74618.0,7.73,-18.41,-18.69,0,*7D
1501441401.6,45485,25.56,74616.0,7.73,-18.35,-18.65,0,*73
1501441402.82,45486,25.56,74616.0,7.73,-18.41,-18.65,0,*73
1501441404.06,45487,25.5,74612.5,7.75,-18.31,-18.59,0,*7C
1501441405.28,45488,25.5,74616.0,7.73,-18.49,-18.83,0,*7D
1501441406.47,45489,25.5,74614.3,7.75,-18.65,-18.99,0,*7F
1501441407.69,45490,25.56,74614.5,7.73,-18.79,-19.13,0,*7F
1501441408.96,45491,25.56,74616.5,7.73,-18.93,-19.27,0,*7D
1501441410.19,45492,25.5,74616.0,7.73,-18.83,-19.17,0,*7C
1501441411.41,45493,25.56,74616.0,7.73,-18.83,-19.17,0,*7D
1501441412.66,45494,25.56,74618.8,7.73,-18.69,-18.93,0,*73
1501441413.87,45495,25.56,74616.5,7.73,-18.65,-18.83,0,*7F
1501441415.07,45496,25.5,74616.5,7.71,-18.49,-18.69,0,*74
1501441416.27,45497,25.5,74616.5,7.71,-18.41,-18.65,0,*71
1501441417.46,45498,25.5,74612.8,7.71,-18.41,-18.79,0,*73
1501441418.71,45499,25.5,74614.0,7.73,-18.35,-18.65,0,*7E
1501441419.95,45500,25.56,74618.3,7.73,-18.35,-18.65,0,*7F
1501441421.17,45501,25.5,74618.0,7.73,-18.49,-18.83,0,*7D
1501441422.41,45502,25.56,74616.8,7.73,-18.65,-18.93,0,*71
1501441423.63,45503,25.5,74614.5,7.73,-18.69,-19.03,0,*74
1501441424.85,45504,25.56,74618.8,7.73,-18.79,-19.13,0,*73
1501441426.08,45505,25.5,74616.0,7.73,-18.79,-19.13,0,*72
1501441427.3,45506,25.56,74618.3,7.73,-18.83,-19.17,0,*70
1501441428.52,45507,25.5,74614.8,7.73,-18.69,-19.13,0,*71
1501441429.74,45508,25.5,74616.0,7.73,-18.49,-18.79,0,*71
1501441430.98,45509,25.5,74618.3,7.73,-18.55,-18.79,0,*7D
1501441432.2,45510,25.5,74616.5,7.73,-18.41,-18.69,0,*71
1501441433.41,45511,25.5,74616.0,7.71,-18.55,-18.79,0,*76
1501441434.61,45512,25.5,74618.3,7.71,-18.49,-18.69,0,*79
1501441435.81,45513,25.5,74618.5,7.71,-18.49,-18.69,0,*78
1501441437.0,45514,25.5,74616.0,7.71,-18.79,-19.03,0,*71
1501441438.2,45515,25.5,74618.0,7.71,-18.83,-19.17,0,*70
1501441439.42,45516,25.5,74614.3,7.71,-18.69,-18.93,0,*7A
1501441440.66,45517,25.56,74616.3,7.73,-18.55,-18.79,0,*72
1501441441.88,45518,25.5,74612.8,7.73,-18.49,-18.65,0,*7D
1501441443.12,45519,25.56,74616.3,7.71,-18.55,-18.89,0,*71
1501441444.32,45520,25.5,74616.0,7.71,-18.83,-19.17,0,*76
1501441445.52,45521,25.5,74618.5,7.67,-18.99,-19.37,0,*79
1501441446.77,45522,25.56,74616.8,7.73,-18.99,-19.31,0,*79
1501441447.98,45523,25.5,74618.0,7.71,-18.89,-19.03,0,*7A
1501441449.22,45524,25.56,74616.0,7.67,-18.59,-18.89,0,*74
1501441450.42,45525,25.5,74616.8,7.71,-18.49,-18.69,0,*7D
1501441451.63,45526,25.56,74616.8,7.73,-18.49,-18.79,0,*7D
1501441452.85,45527,25.56,74618.5,7.73,-18.79,-19.13,0,*72
1501441454.07,45528,25.5,74618.5,7.71,-18.55,-18.79,0,*7C
1501441455.28,45529,25.5,74618.8,7.71,-18.55,-18.83,0,*78
1501441456.51,45530,25.56,74620.3,7.71,-18.93,-19.13,0,*72
1501441457.7,45531,25.56,74620.8,7.71,-18.69,-19.03,0,*77
1501441458.9,45532,25.56,74620.5,7.71,-18.69,-19.03,0,*74
1501441460.1,45533,25.5,74616.5,7.67,-18.41,-18.69,0,*75
1501441461.29,45534,25.56,74616.8,7.67,-18.41,-18.69,0,*72
1501441462.51,45535,25.56,74616.8,7.67,-18.59,-18.83,0,*7E
1501441463.71,45536,25.56,74618.5,7.71,-18.41,-18.65,0,*7B
1501441464.93,45537,25.56,74618.3,7.71,-18.41,-18.55,0,*79
1501441466.13,45538,25.5,74618.0,7.71,-18.49,-18.69,0,*71
1501441467.32,45539,25.5,74616.8,7.71,-18.49,-18.79,0,*71
1501441468.53,45540,25.56,74618.8,7.67,-18.73,-18.89,0,*7E
1501441469.75,45541,25.5,74616.0,7.67,-18.59,-18.83,0,*7D
1501441470.95,45542,25.56,74616.5,7.71,-18.41,-18.69,0,*74
1501441472.19,45543,25.5,74616.0,7.71,-18.35,-18.55,0,*79
1501441473.39,45544,25.5,74614.8,7.71,-18.49,-18.69,0,*7A
1501441474.58,45545,25.5,74614.8,7.67,-18.73,-18.99,0,*7A
1501441475.77,45546,25.5,74618.5,7.67,-18.73,-19.07,0,*7F
1501441476.96,45547,25.5,74618.3,7.71,-18.69,-19.03,0,*76
1501441478.15,45548,25.5,74616.5,7.71,-18.83,-19.03,0,*7D
1501441479.35,45549,25.5,74618.5,7.67,-18.69,-19.03,0,*7F
1501441480.54,45550,25.56,74620.5,7.71,-18.49,-18.69,0,*7F
1501441481.74,45551,25.5,74616.0,7.71,-18.41,-18.65,0,*7A
1501441482.97,45552,25.56,74618.3,7.71,-18.35,-18.69,0,*76
1501441484.16,45553,25.5,74616.8,7.71,-18.65,-18.69,0,*72
1501441485.39,45554,25.5,74616.5,7.71,-18.69,-18.93,0,*7C
1501441486.61,45555,25.56,74622.8,7.71,-18.79,-18.93,0,*7C
1501441487.81,45556,25.56,74618.5,7.67,-18.69,-18.99,0,*73
1501441489.02,45557,25.5,74618.0,7.67,-18.59,-18.83,0,*7A
1501441490.21,45558,25.5,74616.8,7.67,-18.45,-18.69,0,*7C
1501441491.41,45559,25.5,74616.0,7.71,-18.49,-18.65,0,*7A
1501441492.6,45560,25.5,74618.3,7.71,-18.49,-18.79,0,*7D
1501441493.82,45561,25.5,74616.5,7.67,-18.55,-18.69,0,*77
1501441495.07,45562,25.5,74618.0,7.67,-18.31,-18.55,0,*79
1501441496.26,45563,25.5,74618.5,7.71,-18.65,-18.83,0,*75
1501441497.45,45564,25.5,74618.5,7.71,-18.69,-19.03,0,*77
1501441498.65,45565,25.5,74618.3,7.71,-18.73,-18.99,0,*7F
1501441499.87,45566,25.5,74616.8,7.67,-18.65,-18.93,0,*76
1501441501.06,45567,25.5,74620.0,7.67,-18.73,-19.07,0,*7C
1501441502.25,45568,25.5,74620.0,7.67,-18.73,-19.17,0,*72
1501441503.45,45569,25.5,74618.5,7.67,-18.83,-18.99,0,*7B
1501441504.64,45570,25.5,74618.8,7.67,-18.69,-18.99,0,*77
1501441505.86,45571,25.56,74620.0,7.71,-18.55,-18.79,0,*70
1501441507.05,45572,25.5,74622.5,7.67,-18.49,-18.69,0,*78
1501441508.27,45573,25.5,74618.8,7.67,-18.55,-18.73,0,*7F
1501441509.47,45574,25.5,74622.5,7.71,-18.79,-19.03,0,*77
1501441510.65,45575,25.5,74618.3,7.67,-18.83,-19.07,0,*70
1501441511.85,45576,25.5,74620.0,7.67,-18.83,-19.17,0,*72
1501441513.04,45577,25.5,74620.5,7.67,-18.73,-19.07,0,*7D
1501441514.23,45578,25.5,74622.5,7.67,-18.73,-18.99,0,*74
1501441515.42,45579,25.5,74622.8,7.67,-18.69,-18.99,0,*7E
1501441516.61,45580,25.5,74622.3,7.67,-18.83,-19.07,0,*7A
1501441517.85,45581,25.5,74622.3,7.67,-18.59,-18.89,0,*7B
1501441519.07,45582,25.5,74618.8,7.67,-18.69,-18.89,0,*7B
1501441520.29,45583,25.5,74622.5,7.67,-18.69,-18.89,0,*7A
1501441521.48,45584,25.5,74622.5,7.67,-18.69,-19.07,0,*7A
1501441522.68,45585,25.5,74620.0,7.67,-18.83,-19.17,0,*7E
1501441523.89,45586,25.5,74622.5,7.67,-18.89,-18.99,0,*70
1501441525.14,45587,25.5,74620.0,7.65,-18.89,-19.13,0,*70
1501441526.38,45588,25.5,74622.3,7.65,-18.65,-18.89,0,*7F
1501441527.58,45589,25.5,74620.8,7.63,-18.65,-18.79,0,*77
1501441528.82,45590,25.5,74622.5,7.65,-18.73,-18.93,0,*7A
1501441530.02,45591,25.5,74620.0,7.67,-18.73,-18.99,0,*73
1501441531.2,45592,25.5,74620.8,7.67,-18.73,-19.07,0,*76
1501441532.47,45593,25.5,74622.0,7.65,-18.59,-18.89,0,*7A
1501441533.69,45594,25.5,74620.0,7.65,-18.49,-18.73,0,*79
1501441534.93,45595,25.5,74622.5,7.65,-18.59,-18.79,0,*73
1501441536.18,45596,25.5,74620.0,7.65,-18.65,-18.89,0,*70
1501441537.4,45597,25.5,74622.3,7.65,-18.49,-18.73,0,*7A
1501441538.63,45598,25.5,74622.5,7.65,-18.45,-18.73,0,*79
1501441539.85,45599,25.5,74620.5,7.63,-18.73,-18.93,0,*75
1501441541.07,45600,25.5,74624.5,7.65,-18.79,-19.03,0,*72
1501441542.32,45601,25.5,74620.8,7.65,-18.89,-19.13,0,*7D
1501441543.56,45602,25.5,74624.0,7.65,-18.65,-18.93,0,*75
1501441544.81,45603,25.5,74624.8,7.65,-18.73,-18.93,0,*73
1501441546.06,45604,25.56,74624.3,7.65,-18.79,-18.93,0,*7E
1501441547.28,45605,25.5,74624.3,7.63,-18.73,-18.89,0,*78
1501441548.52,45606,25.5,74624.0,7.65,-18.49,-18.89,0,*74
1501441549.75,45607,25.5,74622.3,7.63,-18.35,-18.73,0,*7D
1501441550.97,45608,25.5,74622.5,7.65,-18.21,-18.49,0,*78
1501441552.19,45609,25.5,74622.5,7.65,-18.45,-18.73,0,*72
1501441553.43,45610,25.5,74624.8,7.65,-18.59,-18.79,0,*7D
1501441554.65,45611,25.5,74626.3,7.65,-18.49,-18.79,0,*7D
1501441555.85,45612,25.5,74622.3,7.63,-18.45,-18.73,0,*7E
1501441557.05,45613,25.5,74624.3,7.63,-18.45,-18.65,0,*78
1501441558.3,45614,25.5,74620.0,7.65,-18.35,-18.65,0,*7E
1501441559.52,45615,25.5,74622.3,7.67,-18.41,-18.55,0,*7D
1501441560.71,45616,25.5,74620.0,7.67,-18.17,-18.41,0,*78
1501441561.98,45617,25.56,74626.8,7.65,-18.35,-18.59,0,*72
1501441563.2,45618,25.5,74622.3,7.67,-18.55,-18.73,0,*71
1501441564.45,45619,25.5,74622.5,7.65,-18.73,-18.93,0,*78
1501441565.67,45620,25.5,74624.0,7.65,-18.45,-18.73,0,*79
1501441566.9,45621,25.5,74620.8,7.63,-18.35,-18.65,0,*7E
1501441568.12,45622,25.5,74626.5,7.65,-18.21,-18.45,0,*7C
1501441569.37,45623,25.5,74618.8,7.65,-18.17,-18.35,0,*7F
1501441570.59,45624,25.56,74622.5,7.67,-17.97,-18.17,0,*7D
1501441571.78,45625,25.5,74618.3,7.71,-18.07,-18.25,0,*7C
1501441572.98,45626,25.5,74620.5,7.67,-18.17,-18.45,0,*7F
1501441574.17,45627,25.5,74622.0,7.67,-18.11,-18.41,0,*7C
1501441575.37,45628,25.5,74622.5,7.71,-18.07,-18.21,0,*75
1501441576.56,45629,25.5,74620.0,7.71,-18.21,-18.49,0,*7E
1501441577.76,45630,25.5,74622.5,7.71,-18.21,-18.49,0,*76
1501441578.98,45631,25.5,74616.8,7.71,-18.11,-18.35,0,*7F
1501441580.18,45632,25.5,74620.5,7.71,-18.21,-18.49,0,*74
1501441581.39,45633,25.5,74620.0,7.67,-18.25,-18.55,0,*7B
1501441582.59,45634,25.5,74622.5,7.71,-18.11,-18.49,0,*71
1501441583.8,45635,25.5,74622.5,7.73,-18.07,-18.25,0,*7F
1501441585.0,45636,25.5,74620.5,7.67,-18.11,-18.45,0,*78
1501441586.2,45637,25.5,74620.8,7.71,-18.41,-18.69,0,*75
1501441587.47,45638,25.5,74622.0,7.73,-18.35,-18.55,0,*74
1501441588.66,45639,25.5,74622.3,7.71,-18.69,-19.03,0,*7C
1501441589.88,45640,25.5,74622.5,7.71,-18.65,-18.93,0,*76
1501441591.08,45641,25.5,74620.0,7.71,-18.41,-18.65,0,*78
1501441592.3,45642,25.5,74622.0,7.71,-18.55,-18.69,0,*72
1501441593.49,45643,25.5,74616.5,7.71,-18.49,-18.79,0,*7F
1501441594.71,45644,25.5,74622.3,7.67,-18.55,-18.69,0,*73
1501441595.93,45645,25.5,74622.0,7.71,-18.55,-18.79,0,*74
1501441597.13,45646,25.5,74622.3,7.67,-18.41,-18.69,0,*74
1501441598.32,45647,25.5,74618.8,7.71,-18.49,-18.65,0,*76
1501441599.55,45648,25.5,74618.5,7.67,-18.55,-18.73,0,*74
1501441600.74,45649,25.5,74616.5,7.67,-18.45,-18.69,0,*7F
1501441601.96,45650,25.5,74616.5,7.71,-18.25,-18.55,0,*79
1501441603.16,45651,25.5,74622.0,7.71,-18.21,-18.49,0,*71
1501441604.38,45652,25.5,74620.0,7.67,-18.17,-18.35,0,*7B
1501441605.57,45653,25.5,74618.8,7.71,-18.21,-18.41,0,*7B
1501441606.77,45654,25.5,74620.0,7.71,-18.25,-18.49,0,*70
1501441607.96,45655,25.5,74616.5,7.71,-18.25,-18.49,0,*71
1501441609.23,45656,25.5,74618.3,7.73,-18.35,-18.55,0,*7C
1501441610.45,45657,25.5,74616.5,7.71,-18.35,-18.65,0,*7C
1501441611.65,45658,25.5,74618.0,7.71,-18.25,-18.49,0,*7C
1501441612.89,45659,25.5,74618.8,7.73,-18.11,-18.35,0,*73
1501441614.11,45660,25.5,74618.0,7.73,-18.21,-18.49,0,*71
1501441615.34,45661,25.5,74616.3,7.73,-18.41,-18.69,0,*74
1501441616.56,45662,25.5,74618.8,7.75,-18.07,-18.31,0,*7E
1501441617.79,45663,25.5,74620.8,7.75,-18.35,-18.65,0,*7F
1501441619.02,45664,25.5,74622.3,7.73,-18.55,-18.79,0,*75
1501441620.24,45665,25.5,74620.0,7.73,-18.49,-18.65,0,*74
1501441621.47,45666,25.5,74618.0,7.73,-18.41,-18.65,0,*7F
1501441622.66,45667,25.5,74622.5,7.75,-18.21,-18.49,0,*70
1501441623.89,45668,25.5,74622.8,7.77,-18.45,-18.65,0,*71
1501441625.13,45669,25.5,74624.0,7.73,-18.65,-18.93,0,*7F
1501441626.34,45670,25.5,74622.0,7.75,-18.59,-18.79,0,*7A
1501441627.57,45671,25.5,74622.5,7.75,-18.59,-18.73,0,*71
1501441628.79,45672,25.5,74620.5,7.73,-18.41,-18.65,0,*7A
1501441630.01,45673,25.5,74620.5,7.75,-18.01,-18.17,0,*7C
1501441631.23,45674,25.5,74620.8,7.75,-18.17,-18.35,0,*7C
1501441632.45,45675,25.5,74620.8,7.75,-18.31,-18.45,0,*7E
1501441633.65,45676,25.5,74620.5,7.75,-18.45,-18.49,0,*72
1501441634.87,45677,25.5,74620.5,7.73,-18.49,-18.65,0,*77
1501441636.09,45678,25.5,74624.3,7.77,-18.45,-18.65,0,*70
1501441637.29,45679,25.5,74622.3,7.75,-18.45,-18.65,0,*73
1501441638.49,45680,25.5,74622.3,7.75,-18.49,-18.65,0,*79
1501441639.7,45681,25.5,74622.8,7.75,-18.65,-18.89,0,*74
1501441640.92,45682,25.5,74618.5,7.73,-18.65,-18.69,0,*7F
1501441642.14,45683,25.5,74624.8,7.75,-18.45,-18.59,0,*79
1501441643.37,45684,25.5,74620.8,7.75,-18.35,-18.59,0,*79
1501441644.6,45685,25.5,74622.0,7.75,-18.35,-18.65,0,*77
1501441645.84,45686,25.5,74620.0,7.77,-18.45,-18.59,0,*7E
1501441647.06,45687,25.5,74622.8,7.73,-18.41,-18.65,0,*70
1501441648.3,45688,25.5,74622.0,7.75,-18.35,-18.59,0,*75
1501441649.52,45689,25.5,74622.3,7.77,-18.49,-18.65,0,*72
1501441650.71,45690,25.5,74620.3,7.75,-18.65,-18.79,0,*7B
1501441651.91,45691,25.5,74618.3,7.75,-18.45,-18.65,0,*75
1501441653.11,45692,25.5,74620.0,7.75,-18.21,-18.45,0,*76
1501441654.36,45693,25.5,74620.5,7.75,-18.01,-18.31,0,*76
1501441655.58,45694,25.5,74616.5,7.75,-18.31,-18.49,0,*7D
1501441656.8,45695,25.5,74618.3,7.75,-18.35,-18.49,0,*78
1501441658.06,45696,25.5,74618.0,7.77,-18.17,-18.35,0,*72
1501441659.3,45697,25.5,74620.5,7.77,-18.59,-18.79,0,*71
1501441660.54,45698,25.5,74620.0,7.75,-18.35,-18.59,0,*74
1501441661.76,45699,25.5,74620.0,7.75,-18.17,-18.31,0,*7B
1501441662.99,45700,25.5,74616.3,7.77,-18.17,-18.45,0,*7B
1501441664.24,45701,25.5,74622.3,7.77,-18.31,-18.49,0,*72
1501441665.5,45702,25.5,74618.0,7.77,-18.31,-18.45,0,*7D
1501441666.77,45703,25.5,74620.3,7.77,-18.31,-18.59,0,*71
1501441668.04,45704,25.5,74618.8,7.77,-18.35,-18.59,0,*72
1501441669.29,45705,25.5,74618.5,7.77,-18.07,-18.35,0,*78
1501441670.52,45706,25.5,74618.0,7.79,-17.87,-18.01,0,*75
1501441671.71,45707,25.5,74618.3,7.79,-18.11,-18.41,0,*70
1501441672.96,45708,25.5,74618.8,7.79,-18.01,-18.31,0,*79
1501441674.19,45709,25.5,74618.8,7.79,-17.87,-17.97,0,*7A
1501441675.41,45710,25.5,74616.5,7.79,-17.97,-18.17,0,*74
1501441676.63,45711,25.5,74618.0,7.79,-17.79,-17.87,0,*73
1501441677.83,45712,25.5,74620.0,7.81,-17.49,-17.73,0,*7F
1501441679.04,45713,25.5,74620.3,7.81,-17.73,-17.83,0,*78
1501441680.26,45714,25.5,74618.0,7.83,-18.25,-18.49,0,*78
1501441681.49,45715,25.5,74620.5,7.81,-18.49,-18.55,0,*7C
1501441682.72,45716,25.5,74622.3,7.83,-18.41,-18.65,0,*76
1501441683.92,45717,25.5,74618.8,7.81,-18.25,-18.49,0,*79
1501441685.17,45718,25.5,74620.8,7.83,-18.41,-18.55,0,*7B
1501441686.39,45719,25.5,74620.8,7.83,-18.25,-18.49,0,*75
1501441687.64,45720,25.5,74620.8,7.81,-18.35,-18.55,0,*71
1501441688.86,45721,25.5,74620.8,7.83,-18.49,-18.79,0,*77
1501441690.08,45722,25.5,74620.5,7.81,-18.55,-18.79,0,*7B
1501441691.28,45723,25.5,74622.3,7.81,-18.65,-18.79,0,*79
1501441692.5,45724,25.5,74622.3,7.81,-18.49,-18.55,0,*7E
1501441693.73,45725,25.5,74618.3,7.83,-18.41,-18.49,0,*78
1501441694.93,45726,25.5,74620.8,7.81,-18.41,-18.69,0,*7B
1501441696.16,45727,25.5,74618.5,7.81,-18.65,-18.89,0,*72
1501441697.39,45728,25.5,74622.8,7.81,-18.55,-18.65,0,*7C
1501441698.61,45729,25.5,74622.3,7.81,-18.41,-18.55,0,*7B
1501441699.84,45730,25.5,74624.0,7.83,-18.21,-18.49,0,*7A